Regional Weather Roundup
Issued by NWS Wakefield, VA

Home | Current Version | Previous Version | Graphics & Text | Print | Product List | Glossary On
Versions: 1 2 3 4 5 6 7 8 9 10 11 12 13 14 15 16 17 18 19 20 21 22 23 24 25 26 27 28 29 30 31 32 33 34 35 36 37 38 39 40 41 42 43 44 45 46 47 48 49 50
439
ASUS41 KAKQ 212115
RWRAKQ

REGIONAL WEATHER ROUNDUP
NATIONAL WEATHER SERVICE WAKEFIELD VA
400 PM EST TUE FEB 21 2017

Note: "fair" indicates few or no clouds below 12,000 feet with no
significant weather and/or obstructions to visibility. * = Denotes
station may not report precipitation (e.g., rain,snow,etc.),
thunder or fog.

VAZ042-051-052>054-056-212200-
NORTHERN VIRGINIA

CITY           SKY/WX    TMP DP  RH WIND       PRES   REMARKS
WASH NATIONAL  PTSUNNY   55  33  43 S9        30.18F
DULLES         CLOUDY    55  31  39 SE10      30.16F
FORT BELVOIR   CLOUDY    55  33  42 SE6       30.17F
QUANTICO       CLOUDY    52  40  63 S6        30.18F
FREDERICKSBRG* PTSUNNY   58  35  41 S9        30.16F
STAFFORD*      CLOUDY    58  35  42 SE8       30.20F
WARRENTON      CLOUDY    60  28  30 S7        30.15F
CULPEPER*      MOSUNNY   60  35  38 S8        30.16F
MANASSAS*      CLOUDY    56  34  43 SE12      30.17F
LEESBURG*      MOSUNNY   55  34  44 SE12      30.16F
WINCHESTER     CLOUDY    54  34  47 SE9       30.12S
FRONT ROYAL*   MOCLDY    59  34  38 S8        30.11S
LURAY*         CLOUDY    59  36  41 SW10      30.11F
$$

VAZ048-049-060>072-079>083-212200-
CENTRAL AND SOUTH CENTRAL VIRGINIA

CITY           SKY/WX    TMP DP  RH WIND       PRES   REMARKS
RICHMOND       CLOUDY    59  37  44 SE13      30.17F
CHESTERFIELD*  FAIR      61  28  29 SE10      30.18F
PETERSBURG*    SUNNY     59  32  35 SE6       30.17F
HANOVER        CLOUDY    59  31  34 S9        30.18F
TAPPAHANNOCK*  CLOUDY    56  28  33 E8        30.20F
QUINTON*       FAIR      58  34  40 E12       30.18F
CHARLOTTSVILLE PTSUNNY   60  35  39 S9        30.14F
GORDONSVILLE*  PTCLDY    59  37  43 S6        30.15S
ORANGE*        CLOUDY    55  34  44 CALM      30.16F
LOUISA*        PTSUNNY   63  39  42 S3        30.15S
BUMPASS*       FAIR      58  34  40 SE7       30.16F
FARMVILLE*     SUNNY     64  38  39 SE8       30.14S
CREWE*         FAIR      61  38  42 SE5       30.15F
FORT PICKETT*  FAIR      61  24  24 SE9       30.16F
CHASE CITY*    FAIR      60  32  34 S5        30.15F
CLARKSVILLE*   FAIR      59  37  44 E3        30.15F
SOUTH HILL*    CLOUDY    60  35  38 CALM      30.21S
LAWRENCEVILLE* FAIR      61  30  31 SE8       30.16F
EMPORIA*       SUNNY     61  34  36 SE3       30.18F
$$

VAZ088>098-212200-
SOUTHEAST VIRGINIA

CITY           SKY/WX    TMP DP  RH WIND       PRES   REMARKS
NORFOLK        CLOUDY    53  38  56 E10       30.20F
VIRGINIA BEACH PTSUNNY   51  38  60 E9        30.21F
NORFOLK NAVAL  CLOUDY    54  40  59 E12       30.22F
WEST POINT*    CLOUDY    55  38  52 SE7       30.21F
SALUDA*        FAIR      51  42  72 E6        30.21F
NEWPORT NEWS   CLOUDY    53  38  56 SE8       30.21F
LANGLEY AFB    MOSUNNY   52  39  61 SE10      30.21F
FORT EUSTIS    MOSUNNY   58  37  44 E9        30.18F
WILLIAMSBURG*  CLOUDY    59  41  51 CALM      30.20F
HR EXEC AP*    FAIR      59  37  44 E9        30.18S
FRANKLIN*      CLOUDY    62  39  43 E7        30.18F
US460-WAKEFLD  MOSUNNY   59  38  45 E5        30.18F
$$

VAZ020-022-025-037-045-212200-
WEST CENTRAL AND SOUTHWEST VIRGINIA

CITY           SKY/WX    TMP DP  RH WIND       PRES   REMARKS
STAUNTON*      CLOUDY    58  35  42 S10       30.14S
WAYNESBORO*    MOCLDY    57  32  39 SE10      30.12F
HOT SPRINGS VA CLOUDY    46  30  53 S6        30.13S
LYNCHBURG      MOSUNNY   59  36  42 SW6       30.16S
DANVILLE       CLOUDY    62  38  40 CALM      30.14F
SOUTH BOSTON*  FAIR      61  37  40 E6        30.15F
MARTINSVILLE   PTSUNNY   61  37  41 SE5       30.16F
ROANOKE        PTSUNNY   61  37  41 SE12      30.14F
BLACKSBURG     SUNNY     62  42  48 S8        30.13F
DUBLIN*        MOSUNNY   62  43  49 S13G20    30.10F
MARION*        MOSUNNY   64  42  45 S6        30.10S
HILLSVILLE*    SUNNY     56  41  56 S9        30.11S
RICHLANDS*     FAIR      65  41  42 SE5       30.05F
WISE*          MOSUNNY   66  36  32 CALM      30.05S
ABINGDON*      MOSUNNY   69  43  39 S6        30.04F
$$

MDZ021>025-VAZ099-100-212200-
SOUTHERN MARYLAND AND THE DELMARVA PENINSULA

CITY           SKY/WX    TMP DP  RH WIND       PRES   REMARKS
PATUXENT RIVER PTSUNNY   48  40  73 SE10      30.21F
BAY BRIDGE APT PTSUNNY   52  28  40 S13       30.20F
LEONARDTOWN    MOSUNNY   52  34  50 SE8       30.21F
DOVER          MOSUNNY   45  37  73 E8G20     30.22F
GEORGETOWN     MOSUNNY   51  36  56 SE14      30.23F
EASTON         PTSUNNY   55  30  38 SW9       30.24F
CAMBRIDGE      NOT AVBL
SALISBURY      CLOUDY    52  37  56 S10       30.22F
OCEAN CITY     MOSUNNY   46  38  73 SE6       30.25F
WALLOPS ISLAND MOSUNNY   50  37  61 SE10      30.25S
ACCOMACK*      CLOUDY    49  38  63 E6        30.23F
$$

NCZ012>017-030>032-212200-
NORTH CENTRAL AND EASTERN NORTH CAROLINA

CITY           SKY/WX    TMP DP  RH WIND       PRES   REMARKS
ROANOKE RAPIDS FAIR      63  41  45 E3        30.16F
RALEIGH        CLOUDY    64  34  32 SE3       30.14F
ELIZABETH CITY MOSUNNY   56  42  59 E9        30.20F
AHOSKIE*         N/A     61  44  53 E3        30.17F
EDENTON*       MOSUNNY   58  44  59 E13       30.20S
CURRITUCK*     MOSUNNY   53  41  62 NE8       30.22F
KILL DEVIL HLS NOT AVBL
MANTEO         MOSUNNY   53  45  73 E13       30.20F
CAPE HATTERAS  CLOUDY    64  52  64 NE8       30.17F
TARBORO*       NOT AVBL
GOLDSBORO      MOSUNNY   65  44  46 E6        30.13F
WASHINGTON     CLOUDY    64  48  56 SE8       30.16F
GREENVILLE     MOSUNNY   64  46  52 SE3       30.17S
NEW BERN       MOSUNNY   63  50  62 SE7       30.17F
WILMINGTON     CLOUDY    64  52  64 E12       30.14F
$$

VAZ048-212200-
ELSEWHERE

CITY           SKY/WX    TMP DP  RH WIND       PRES   REMARKS
HARRISBURG PA  CLOUDY    51  29  42 SE8       30.16F
BALTIMORE      PTSUNNY   52  33  48 SE6       30.18F
ANNAPOLIS      MOSUNNY   52  34  50 S13       30.19F
ANDREWS AFB    PTSUNNY   54  28  36 S10       30.17F
PHILADELPHIA   CLOUDY    50  30  46 SW10      30.21F
HENDERSON NC   CLOUDY    59  34  38 SE6       30.15F
GREENSBORO     CLOUDY    62  39  42 S8        30.12F
ROCKY MOUNT    PTSUNNY   62  46  55 E5        30.15F
$$

VAZ100-212200-
MARINE

STATION/POSITION TIME  TEMP    WIND        PRES    WAVE   SWELL
                       AIR SEA DIR/SP/G            HT/PER HT/PER
                 (UTC) (F)     (DEG/KT/KT) (MB)    (FT/S) (FT/S)
CAPE MAY NJ      2036   44 43  110/ 11/ 14 1023.7F
LEWES DE         2036   45 43  130/  9/ 12 1023.8F
OCEAN-CITY-INLET 2036   46 44  130/  4/  6 1024.8F
WACHAPREAGUE VA  2036   48 50  110/  7/ 10 1023.9F
THOMAS POINT MD  2100   47 43  170/ 17/ 19   N/A
GOOSES REEF MD   2100   45 43  170/ 10/ 12 1023.3
COVE POINT MD    2036   45     190/  8/  9 1023.8F
SOLOMONS ISLAND  2036   48 44  130/ 13/ 14   N/A
BISHOPS HEAD MD  2036   49 49  160/  9/ 10 1023.7F
PINEY POINT MD   2048          140/ 12/ 13   N/A
POTOMAC MD       2100   46 43  120/  8/ 10 1022.4    0
CAMBRIDGE MD     2036   54 41  190/  5/  9 1022.6S
LEWISETTA VA     2036   47 47  110/ 11/ 13 1022.7F
RAPPAHANNOCK LGT 2048          120/  9/ 10 1023.9F
YORK RVR RNG VA  2036   47     110/  6/  6 1022.4F
YORKTOWN VA      2048   50 45  110/ 10/ 11 1022.7F
JAMESTOWN VA     2100   54 51  110/ 10/ 14   N/A     0
DOMINION TERM VA 2048   49      80/ 11/ 14 1023.0F
KIPTOPEKE VA     2048      48  120/  9/ 13   N/A
CHES BAY BRIDGE  2048   48 46  100/ 10/ 11 1023.1F
CAPE HENRY VA    2048   48      90/  9/ 10   N/A
WILLOUBY STN VA  2048   48      90/ 13/ 14 1023.6F
S CRANEY ISL VA  2048   51      90/ 10/ 15 1022.3F
CAPE HENRY BUOY  2042      48                N/A     3/ 6
OFFSHORE WE BUOY 2051      48                N/A     4/ 6
64NM E OF VA BCH 2050   52 53   70/ 14/ 16 1022.7F   4/ 6   3/ 6
DUCK PIER NC     2048   49 49   40/ 10/ 12 1022.2F
44100 DUCK FRF   2035      49                N/A     4/ 8
44056 DUCK FRF   2030      50                N/A     4/ 7
OREGON INLET NC  2042   52 51   40/  7/ 12 1022.2F
HATTERAS NC      2048   56 58   30/  9/ 13 1021.3F
DIAMOND SHLS NC  2050   63 75  110/ 10/ 14 1021.6F   5/10   5/10
CAPE LOOKOUT NC  2100   57      40/ 13/ 15 1020.9F
$$




USA.gov is the U.S. government's official web portal to all federal, state and local government web resources and services.